Time,TemperatureF,DewpointF,PressureIn,WindDirection,WindDirectionDegrees,WindSpeedMPH,WindSpeedGustMPH,Humidity,HourlyPrecipIn,Conditions,Clouds,dailyrainin,SoftwareType,DateUTC
2013-12-26 00:01:00,27.8,26.0,30.33,WSW,247,0.0,1.0,94,0.00,,,0.00,weatherlink.com 1.10,2013-12-26 06:01:00,
2013-12-26 00:16:00,27.4,26.0,30.33,WSW,247,0.0,1.0,93,0.00,,,0.00,weatherlink.com 1.10,2013-12-26 06:16:00,
2013-12-26 00:31:00,27.0,26.0,30.33,WSW,247,0.0,1.0,94,0.00,,,0.00,weatherlink.com 1.10,2013-12-26 06:31:00,
2013-12-26 00:46:00,26.7,25.0,30.33,WSW,246,1.0,3.0,93,0.00,,,0.00,weatherlink.com 1.10,2013-12-26 06:46:00,
2013-12-26 01:01:00,26.4,25.0,30.32,WSW,246,0.0,1.0,93,0.00,,,0.00,weatherlink.com 1.10,2013-12-26 07:01:00,
2013-12-26 01:16:00,26.1,24.0,30.32,WSW,246,0.0,1.0,93,0.00,,,0.00,weatherlink.com 1.10,2013-12-26 07:16:00,
2013-12-26 01:31:00,25.9,24.0,30.32,WSW,246,0.0,1.0,94,0.00,,,0.00,weatherlink.com 1.10,2013-12-26 07:31:00,
2013-12-26 01:46:00,25.7,24.0,30.32,WSW,246,0.0,0.0,93,0.00,,,0.00,weatherlink.com 1.10,2013-12-26 07:46:00,
2013-12-26 02:01:00,25.5,24.0,30.33,WSW,246,0.0,1.0,93,0.00,,,0.00,weatherlink.com 1.10,2013-12-26 08:01:00,
2013-12-26 02:16:00,25.4,24.0,30.33,WSW,246,0.0,0.0,93,0.00,,,0.00,weatherlink.com 1.10,2013-12-26 08:16:00,
2013-12-26 02:31:00,25.1,23.0,30.33,WSW,246,0.0,0.0,93,0.00,,,0.00,weatherlink.com 1.10,2013-12-26 08:31:00,
2013-12-26 02:46:00,24.9,23.0,30.33,WSW,246,0.0,0.0,93,0.00,,,0.00,weatherlink.com 1.10,2013-12-26 08:46:00,
2013-12-26 03:01:00,24.6,23.0,30.33,WSW,246,0.0,0.0,93,0.00,,,0.00,weatherlink.com 1.10,2013-12-26 09:01:00,
2013-12-26 03:16:00,24.6,23.0,30.33,WSW,246,0.0,0.0,93,0.00,,,0.00,weatherlink.com 1.10,2013-12-26 09:16:00,
2013-12-26 03:31:00,24.8,23.0,30.33,WSW,246,0.0,0.0,94,0.00,,,0.00,weatherlink.com 1.10,2013-12-26 09:31:00,
2013-12-26 03:47:00,24.9,24.0,30.33,WSW,246,0.0,0.0,94,0.00,,,0.00,weatherlink.com 1.10,2013-12-26 09:47:00,
2013-12-26 04:02:00,25.0,24.0,30.33,WSW,246,0.0,0.0,94,0.00,,,0.00,weatherlink.com 1.10,2013-12-26 10:02:00,
2013-12-26 04:17:00,25.1,24.0,30.32,WSW,246,0.0,0.0,94,0.00,,,0.00,weatherlink.com 1.10,2013-12-26 10:17:00,
2013-12-26 04:32:00,25.3,24.0,30.32,WSW,246,0.0,0.0,94,0.00,,,0.00,weatherlink.com 1.10,2013-12-26 10:32:00,
2013-12-26 04:47:00,25.4,24.0,30.32,SSW,213,0.0,1.0,94,0.00,,,0.00,weatherlink.com 1.10,2013-12-26 10:47:00,
2013-12-26 05:02:00,25.4,24.0,30.32,SSW,196,0.0,1.0,94,0.00,,,0.00,weatherlink.com 1.10,2013-12-26 11:02:00,
2013-12-26 05:17:00,25.4,24.0,30.33,SSW,196,0.0,0.0,94,0.00,,,0.00,weatherlink.com 1.10,2013-12-26 11:17:00,
2013-12-26 05:32:00,25.5,24.0,30.32,SSW,196,0.0,0.0,94,0.00,,,0.00,weatherlink.com 1.10,2013-12-26 11:32:00,
2013-12-26 05:47:00,25.4,24.0,30.33,SSW,196,0.0,1.0,94,0.00,,,0.00,weatherlink.com 1.10,2013-12-26 11:47:00,
2013-12-26 06:02:00,25.2,24.0,30.33,SSW,196,0.0,1.0,94,0.00,,,0.00,weatherlink.com 1.10,2013-12-26 12:02:00,
2013-12-26 06:17:00,25.0,24.0,30.33,SSE,159,0.0,1.0,94,0.00,,,0.00,weatherlink.com 1.10,2013-12-26 12:17:00,
2013-12-26 06:32:00,24.9,24.0,30.33,SSE,159,0.0,1.0,94,0.00,,,0.00,weatherlink.com 1.10,2013-12-26 12:32:00,
2013-12-26 06:47:00,24.8,23.0,30.33,SSE,159,0.0,0.0,94,0.00,,,0.00,weatherlink.com 1.10,2013-12-26 12:47:00,
2013-12-26 07:02:00,24.7,23.0,30.34,SSE,159,0.0,0.0,94,0.00,,,0.00,weatherlink.com 1.10,2013-12-26 13:02:00,
2013-12-26 07:17:00,24.6,23.0,30.34,SSE,159,0.0,1.0,94,0.00,,,0.00,weatherlink.com 1.10,2013-12-26 13:17:00,
2013-12-26 07:32:00,24.4,23.0,30.34,SSE,153,0.0,0.0,94,0.00,,,0.00,weatherlink.com 1.10,2013-12-26 13:32:00,
2013-12-26 07:47:00,24.4,23.0,30.34,SSE,153,0.0,1.0,94,0.00,,,0.00,weatherlink.com 1.10,2013-12-26 13:47:00,
2013-12-26 08:02:00,24.5,23.0,30.35,SSE,153,1.0,1.0,94,0.00,,,0.00,weatherlink.com 1.10,2013-12-26 14:02:00,
2013-12-26 08:17:00,24.7,23.0,30.35,SE,136,0.0,1.0,94,0.00,,,0.00,weatherlink.com 1.10,2013-12-26 14:17:00,
2013-12-26 08:32:00,24.9,24.0,30.35,SE,130,0.0,2.0,94,0.00,,,0.00,weatherlink.com 1.10,2013-12-26 14:32:00,
2013-12-26 08:47:00,25.7,24.0,30.35,SE,130,0.0,2.0,94,0.00,,,0.00,weatherlink.com 1.10,2013-12-26 14:47:00,
2013-12-26 09:02:00,26.7,26.0,30.35,SE,136,0.0,0.0,95,0.00,,,0.00,weatherlink.com 1.10,2013-12-26 15:02:00,
2013-12-26 09:17:00,28.4,27.0,30.36,SE,136,0.0,1.0,95,0.00,,,0.00,weatherlink.com 1.10,2013-12-26 15:17:00,
2013-12-26 09:32:00,30.7,30.0,30.36,South,174,0.0,2.0,96,0.00,,,0.00,weatherlink.com 1.10,2013-12-26 15:32:00,
2013-12-26 09:47:00,32.5,31.0,30.36,South,172,0.0,3.0,95,0.00,,,0.00,weatherlink.com 1.10,2013-12-26 15:47:00,
2013-12-26 10:02:00,33.9,33.0,30.36,South,186,0.0,5.0,95,0.00,,,0.00,weatherlink.com 1.10,2013-12-26 16:02:00,
2013-12-26 10:17:00,34.6,33.0,30.36,South,171,1.0,6.0,93,0.00,,,0.00,weatherlink.com 1.10,2013-12-26 16:17:00,
2013-12-26 10:32:00,36.4,34.0,30.36,SSE,167,3.0,6.0,91,0.00,,,0.00,weatherlink.com 1.10,2013-12-26 16:32:00,
2013-12-26 10:47:00,38.5,35.0,30.35,South,188,4.0,9.0,86,0.00,,,0.00,weatherlink.com 1.10,2013-12-26 16:47:00,
2013-12-26 11:02:00,40.2,35.0,30.35,SSE,159,4.0,5.0,82,0.00,,,0.00,weatherlink.com 1.10,2013-12-26 17:02:00,
2013-12-26 11:17:00,41.6,36.0,30.35,SE,139,2.0,9.0,79,0.00,,,0.00,weatherlink.com 1.10,2013-12-26 17:17:00,
2013-12-26 11:32:00,42.9,36.0,30.34,South,185,8.0,8.0,75,0.00,,,0.00,weatherlink.com 1.10,2013-12-26 17:32:00,
2013-12-26 11:48:00,44.0,36.0,30.34,SSW,198,3.0,7.0,74,0.00,,,0.00,weatherlink.com 1.10,2013-12-26 17:48:00,
2013-12-26 12:03:00,45.1,35.0,30.32,SE,135,3.0,10.0,69,0.00,,,0.00,weatherlink.com 1.10,2013-12-26 18:03:00,
2013-12-26 12:18:00,45.8,33.0,30.32,SSW,206,9.0,13.0,62,0.00,,,0.00,weatherlink.com 1.10,2013-12-26 18:18:00,
2013-12-26 12:33:00,46.1,33.0,30.32,SSW,194,8.0,16.0,60,0.00,,,0.00,weatherlink.com 1.10,2013-12-26 18:33:00,
2013-12-26 12:48:00,47.2,32.0,30.31,SSE,148,4.0,12.0,57,0.00,,,0.00,weatherlink.com 1.10,2013-12-26 18:48:00,
2013-12-26 13:03:00,48.5,32.0,30.30,WSW,239,6.0,13.0,54,0.00,,,0.00,weatherlink.com 1.10,2013-12-26 19:03:00,
2013-12-26 13:18:00,49.1,32.0,30.29,SSW,192,10.0,10.0,53,0.00,,,0.00,weatherlink.com 1.10,2013-12-26 19:18:00,
2013-12-26 13:33:00,49.6,31.0,30.29,SSW,204,3.0,8.0,49,0.00,,,0.00,weatherlink.com 1.10,2013-12-26 19:33:00,
2013-12-26 13:48:00,50.2,29.0,30.28,SSW,212,6.0,18.0,44,0.00,,,0.00,weatherlink.com 1.10,2013-12-26 19:48:00,
2013-12-26 14:03:00,50.3,27.0,30.28,SSW,199,8.0,13.0,41,0.00,,,0.00,weatherlink.com 1.10,2013-12-26 20:03:00,
2013-12-26 14:18:00,50.9,27.0,30.27,SSE,154,2.0,12.0,40,0.00,,,0.00,weatherlink.com 1.10,2013-12-26 20:18:00,
2013-12-26 14:33:00,51.6,26.0,30.26,SW,216,4.0,12.0,37,0.00,,,0.00,weatherlink.com 1.10,2013-12-26 20:33:00,
2013-12-26 14:48:00,52.0,26.0,30.26,SSE,163,5.0,12.0,36,0.00,,,0.00,weatherlink.com 1.10,2013-12-26 20:48:00,
2013-12-26 15:03:00,51.7,27.0,30.26,SSE,151,2.0,12.0,38,0.00,,,0.00,weatherlink.com 1.10,2013-12-26 21:03:00,
2013-12-26 15:18:00,51.9,28.0,30.26,SSE,168,6.0,14.0,40,0.00,,,0.00,weatherlink.com 1.10,2013-12-26 21:18:00,
2013-12-26 15:33:00,51.5,28.0,30.26,South,186,2.0,10.0,41,0.00,,,0.00,weatherlink.com 1.10,2013-12-26 21:33:00,
2013-12-26 15:48:00,51.4,28.0,30.25,South,180,6.0,12.0,41,0.00,,,0.00,weatherlink.com 1.10,2013-12-26 21:48:00,
2013-12-26 16:03:00,50.1,29.0,30.25,SSE,164,2.0,10.0,44,0.00,,,0.00,weatherlink.com 1.10,2013-12-26 22:03:00,
2013-12-26 16:18:00,49.6,29.0,30.24,SSE,153,2.0,9.0,45,0.00,,,0.00,weatherlink.com 1.10,2013-12-26 22:18:00,
2013-12-26 16:33:00,49.0,29.0,30.24,SSE,161,0.0,5.0,46,0.00,,,0.00,weatherlink.com 1.10,2013-12-26 22:33:00,
2013-12-26 16:48:00,48.4,29.0,30.24,SE,127,2.0,7.0,47,0.00,,,0.00,weatherlink.com 1.10,2013-12-26 22:48:00,
2013-12-26 17:03:00,47.8,28.0,30.24,South,169,0.0,5.0,47,0.00,,,0.00,weatherlink.com 1.10,2013-12-26 23:03:00,
2013-12-26 17:18:00,46.6,29.0,30.24,South,169,0.0,1.0,50,0.00,,,0.00,weatherlink.com 1.10,2013-12-26 23:18:00,
2013-12-26 17:33:00,45.1,28.0,30.25,South,186,0.0,4.0,52,0.00,,,0.00,weatherlink.com 1.10,2013-12-26 23:33:00,
2013-12-26 17:48:00,43.5,29.0,30.24,SSE,166,0.0,2.0,57,0.00,,,0.00,weatherlink.com 1.10,2013-12-26 23:48:00,
2013-12-26 18:03:00,41.4,28.0,30.25,SSE,163,0.0,2.0,60,0.00,,,0.00,weatherlink.com 1.10,2013-12-27 00:03:00,
2013-12-26 18:18:00,40.2,29.0,30.25,South,182,0.0,3.0,64,0.00,,,0.00,weatherlink.com 1.10,2013-12-27 00:18:00,
2013-12-26 18:33:00,38.8,28.0,30.25,South,177,2.0,2.0,66,0.00,,,0.00,weatherlink.com 1.10,2013-12-27 00:33:00,
2013-12-26 18:48:00,39.2,29.0,30.25,SSW,194,1.0,3.0,66,0.00,,,0.00,weatherlink.com 1.10,2013-12-27 00:48:00,
2013-12-26 19:03:00,39.0,29.0,30.26,SSW,198,1.0,3.0,67,0.00,,,0.00,weatherlink.com 1.10,2013-12-27 01:03:00,
2013-12-26 19:18:00,37.6,29.0,30.27,South,184,1.0,3.0,70,0.00,,,0.00,weatherlink.com 1.10,2013-12-27 01:18:00,
2013-12-26 19:33:00,36.8,28.0,30.27,SSW,209,2.0,6.0,71,0.00,,,0.00,weatherlink.com 1.10,2013-12-27 01:33:00,
2013-12-26 19:48:00,37.3,28.0,30.27,SSW,209,2.0,7.0,70,0.00,,,0.00,weatherlink.com 1.10,2013-12-27 01:48:00,
2013-12-26 20:04:00,36.8,28.0,30.27,SSW,199,0.0,3.0,71,0.00,,,0.00,weatherlink.com 1.10,2013-12-27 02:04:00,
2013-12-26 20:18:00,35.5,28.0,30.27,SSW,199,0.0,1.0,74,0.00,,,0.00,weatherlink.com 1.10,2013-12-27 02:18:00,
2013-12-26 20:33:00,34.5,28.0,30.27,SSW,199,0.0,2.0,76,0.00,,,0.00,weatherlink.com 1.10,2013-12-27 02:33:00,
2013-12-26 20:49:00,33.7,28.0,30.27,SSW,199,0.0,0.0,79,0.00,,,0.00,weatherlink.com 1.10,2013-12-27 02:49:00,
2013-12-26 21:04:00,32.9,27.0,30.28,SSW,199,0.0,1.0,80,0.00,,,0.00,weatherlink.com 1.10,2013-12-27 03:04:00,
2013-12-26 21:19:00,32.2,27.0,30.28,SSW,199,1.0,4.0,82,0.00,,,0.00,weatherlink.com 1.10,2013-12-27 03:19:00,
2013-12-26 21:34:00,31.8,27.0,30.29,SSW,199,2.0,3.0,83,0.00,,,0.00,weatherlink.com 1.10,2013-12-27 03:34:00,
2013-12-26 21:49:00,31.4,27.0,30.29,SW,217,1.0,4.0,83,0.00,,,0.00,weatherlink.com 1.10,2013-12-27 03:49:00,
2013-12-26 22:04:00,30.9,27.0,30.30,SSW,212,0.0,2.0,85,0.00,,,0.00,weatherlink.com 1.10,2013-12-27 04:04:00,
2013-12-26 22:19:00,30.5,27.0,30.30,SSW,212,0.0,0.0,86,0.00,,,0.00,weatherlink.com 1.10,2013-12-27 04:19:00,
2013-12-26 22:34:00,30.2,27.0,30.30,SSW,212,0.0,1.0,87,0.00,,,0.00,weatherlink.com 1.10,2013-12-27 04:34:00,
2013-12-26 22:49:00,29.9,27.0,30.30,SSW,212,0.0,1.0,87,0.00,,,0.00,weatherlink.com 1.10,2013-12-27 04:49:00,
2013-12-26 23:04:00,29.7,27.0,30.30,SSW,212,0.0,0.0,88,0.00,,,0.00,weatherlink.com 1.10,2013-12-27 05:04:00,
2013-12-26 23:19:00,29.3,26.0,30.30,SSW,212,0.0,0.0,88,0.00,,,0.00,weatherlink.com 1.10,2013-12-27 05:19:00,
2013-12-26 23:34:00,29.1,26.0,30.31,SSW,212,0.0,1.0,89,0.00,,,0.00,weatherlink.com 1.10,2013-12-27 05:34:00,
2013-12-26 23:49:00,28.9,26.0,30.31,SSW,212,0.0,0.0,89,0.00,,,0.00,weatherlink.com 1.10,2013-12-27 05:49:00,